EW4907 Weather Reports


Display with metric or nautical units.
time (UTC)temp
F
wind
direction
speed
MPH
gust
MPH
rain 1hr
in
rain 24hr
in
rain mn
in
humidity
%
barometer
mb
20260831021555 87 170 4.0 10.0 0.00 0.00 0.00 55 1013.4
20260831020052 87 139 3.0 7.0 0.00 0.00 0.00 54 1013.2
20260831014551 88 137 5.0 11.0 0.00 0.00 0.00 53 1013.1
20260831013051 89 131 7.0 12.0 0.00 0.00 0.00 50 1012.8
20260831011555 89 134 2.0 5.0 0.00 0.00 0.00 48 1012.6
20260831010055 90 141 2.0 5.0 0.00 0.00 0.00 47 1012.7
20260831004552 92 148 3.0 5.0 0.00 0.00 0.00 45 1012.5
20260831003050 93 148 2.0 8.0 0.00 0.00 0.00 42 1012.5
20260831001547 94 156 4.0 7.0 0.00 0.00 0.00 41 1012.4
20260831000057 94 194 4.0 9.0 0.00 0.00 0.00 40 1012.4
20260830234548 94 204 3.0 10.0 0.00 0.00 0.00 40 1012.5
20260830233043 95 195 3.0 8.0 0.00 0.00 0.00 40 1012.5
20260830231542 95 183 6.0 10.0 0.00 0.00 0.00 39 1012.6
20260830230040 95 163 6.0 11.0 0.00 0.00 0.00 40 1012.6
20260830224547 95 109 4.0 10.0 0.00 0.00 0.00 40 1012.7
20260830223044 94 149 4.0 11.0 0.00 0.00 0.00 41 1012.8
20260830221535 94 130 2.0 11.0 0.00 0.00 0.00 41 1012.7
20260830220034 94 155 8.0 14.0 0.00 0.00 0.00 40 1012.9
20260830214532 94 174 7.0 12.0 0.00 0.00 0.00 40 1013.0
20260830213029 94 148 5.0 15.0 0.00 0.00 0.00 43 1013.1
20260830211532 94 138 6.0 13.0 0.00 0.00 0.00 44 1013.5
20260830210024 93 148 8.0 14.0 0.00 0.00 0.00 45 1013.7
20260830204534 94 167 6.0 14.0 0.00 0.00 0.00 46 1013.9
20260830203019 93 169 5.0 13.0 0.00 0.00 0.00 48 1014.2
20260830201518 92 145 2.0 18.0 0.00 0.00 0.00 50 1014.3
20260830200015 93 151 4.0 14.0 0.00 0.00 0.00 47 1014.6
20260830194512 93 322 1.0 12.0 0.00 0.00 0.00 48 1014.8
20260830193011 91 107 7.0 14.0 0.00 0.00 0.00 49 1015.0
20260830191508 92 135 2.0 9.0 0.00 0.00 0.00 49 1015.2
20260830190006 91 137 6.0 12.0 0.00 0.00 0.00 51 1015.5
20260830184510 91 178 2.0 8.0 0.00 0.00 0.00 53 1015.6
20260830183003 90 193 5.0 13.0 0.00 0.00 0.00 54 1015.9
20260830181502 90 189 4.0 10.0 0.00 0.00 0.00 53 1016.2
20260830180103 90 102 5.0 15.0 0.00 0.00 0.00 53 1016.4
20260830174602 90 188 4.0 11.0 0.00 0.00 0.00 53 1016.8
20260830173106 88 155 5.0 14.0 0.00 0.00 0.00 55 1016.9
20260830171555 88 162 5.0 12.0 0.00 0.00 0.00 55 1017.1
20260830170058 88 162 3.0 12.0 0.00 0.00 0.00 57 1017.1
20260830164600 88 150 4.0 11.0 0.00 0.00 0.00 58 1017.3
20260830163106 86 208 3.0 8.0 0.00 0.00 0.00 64 1017.4
20260830161550 86 115 2.0 9.0 0.00 0.00 0.00 63 1017.4
20260830160046 85 153 7.0 13.0 0.00 0.00 0.00 64 1017.3
20260830154546 84 147 6.0 13.0 0.00 0.00 0.00 66 1017.1
20260830153039 82 243 3.0 11.0 0.00 0.00 0.00 72 1017.2
20260830151537 81 243 4.0 13.0 0.00 0.00 0.00 76 1017.1
20260830150040 80 232 4.0 11.0 0.00 0.00 0.00 77 1017.0
20260830144535 79 216 5.0 12.0 0.00 0.00 0.00 80 1017.0
20260830143035 79 243 5.0 13.0 0.00 0.00 0.00 79 1017.2
20260830141534 80 183 4.0 11.0 0.00 0.00 0.00 81 1017.1
20260830140030 78 224 6.0 12.0 0.00 0.00 0.00 83 1016.9
20260830134529 78 175 6.0 12.0 0.00 0.00 0.00 85 1016.7
20260830133026 77 180 4.0 10.0 0.00 0.00 0.00 87 1016.7
20260830131535 76 212 2.0 6.0 0.00 0.00 0.00 88 1016.5
20260830130024 75 195 2.0 6.0 0.00 0.00 0.00 90 1016.5
20260830124522 74 206 2.0 6.0 0.00 0.00 0.00 91 1016.5
20260830123021 73 186 2.0 6.0 0.00 0.00 0.00 92 1016.4
20260830121522 73 179 3.0 6.0 0.00 0.00 0.00 91 1016.1
20260830120019 73 234 3.0 7.0 0.00 0.00 0.00 91 1016.0
20260830114516 73 196 3.0 7.0 0.00 0.00 0.00 90 1016.0
20260830113017 74 181 3.0 9.0 0.00 0.00 0.00 90 1015.9
20260830111516 73 245 4.0 8.0 0.00 0.00 0.00 90 1015.8
20260830110014 73 217 3.0 8.0 0.00 0.00 0.00 89 1015.7
20260830104515 73 187 2.0 6.0 0.00 0.00 0.00 89 1015.7
20260830103013 73 195 2.0 7.0 0.00 0.00 0.00 88 1015.6
20260830101511 73 197 2.0 5.0 0.00 0.00 0.00 87 1015.6
20260830100010 74 205 2.0 5.0 0.00 0.00 0.00 86 1015.6
20260830094510 74 212 3.0 7.0 0.00 0.00 0.00 85 1015.6
20260830093008 74 222 1.0 5.0 0.00 0.00 0.00 84 1015.6
20260830091510 74 188 2.0 6.0 0.00 0.00 0.00 83 1015.6
20260830090004 75 196 3.0 7.0 0.00 0.00 0.00 82 1015.7
20260830084503 75 192 3.0 6.0 0.00 0.00 0.00 82 1015.7
20260830083002 75 174 3.0 7.0 0.00 0.00 0.00 81 1015.7
20260830081559 75 181 3.0 8.0 0.00 0.00 0.00 80 1015.7
20260830080058 76 176 4.0 7.0 0.00 0.00 0.00 80 1015.9
20260830074555 76 179 3.0 7.0 0.00 0.00 0.00 79 1016.1
20260830073054 76 188 4.0 9.0 0.00 0.00 0.00 78 1016.1
20260830071551 77 172 4.0 7.0 0.00 0.00 0.00 78 1016.1
20260830070050 77 229 3.0 7.0 0.00 0.00 0.00 77 1016.2
20260830064547 78 214 4.0 8.0 0.00 0.00 0.00 76 1016.1
20260830063045 78 202 4.0 9.0 0.00 0.00 0.00 76 1016.1
20260830061544 78 179 3.0 6.0 0.00 0.00 0.00 76 1016.3
20260830060042 79 181 3.0 6.0 0.00 0.00 0.00 75 1016.1
20260830054539 79 217 4.0 7.0 0.00 0.00 0.00 74 1016.0
20260830053037 80 161 4.0 9.0 0.00 0.00 0.00 73 1016.1
20260830051541 80 150 4.0 9.0 0.00 0.00 0.00 72 1016.2
20260830050031 81 164 2.0 7.0 0.00 0.00 0.00 71 1016.2
20260830044532 82 180 3.0 7.0 0.00 0.00 0.00 69 1016.2
20260830043030 82 139 3.0 9.0 0.00 0.00 0.00 68 1016.1
20260830041530 83 171 4.0 12.0 0.00 0.00 0.00 66 1016.2
20260830040029 84 204 5.0 11.0 0.00 0.00 0.00 65 1016.2
20260830034630 84 178 6.0 15.0 0.00 0.00 0.00 64 1016.1
20260830033029 85 179 5.0 13.0 0.00 0.00 0.00 62 1016.0
20260830031527 86 156 5.0 13.0 0.00 0.00 0.00 60 1015.7
20260830030027 86 151 7.0 16.0 0.00 0.00 0.00 58 1015.6
20260830024526 86 146 3.0 8.0 0.00 0.00 0.00 56 1015.4
20260830023026 87 124 5.0 9.0 0.00 0.00 0.00 52 1015.1